Time,TemperatureF,DewpointF,PressureIn,WindDirection,WindDirectionDegrees,WindSpeedMPH,WindSpeedGustMPH,Humidity,HourlyPrecipIn,Conditions,Clouds,dailyrainin,SoftwareType,DateUTC
2013-10-25 00:01:00,31.9,31.9,29.84,NW,309,0.0,0.0,100,0.00,,OVC024,0.00,VWS V12.08,2013-10-25 04:01:00,
2013-10-25 00:02:00,31.9,31.9,29.84,NW,309,0.0,0.0,100,0.00,,OVC024,0.00,VWS V12.08,2013-10-25 04:02:00,
2013-10-25 00:07:00,31.9,31.9,29.84,NW,309,0.0,0.0,100,0.00,,OVC024,0.00,VWS V12.08,2013-10-25 04:07:00,
2013-10-25 00:12:00,31.9,31.9,29.84,NW,309,0.0,0.0,100,0.00,,OVC024,0.00,VWS V12.08,2013-10-25 04:12:00,
2013-10-25 00:17:00,31.9,31.9,29.85,NW,309,0.0,0.0,100,0.00,,OVC024,0.00,VWS V12.08,2013-10-25 04:17:00,
2013-10-25 00:22:00,31.9,31.9,29.85,NW,309,0.0,0.0,100,0.00,,OVC024,0.00,VWS V12.08,2013-10-25 04:22:00,
2013-10-25 00:27:00,31.9,31.9,29.85,NW,309,0.0,0.0,100,0.00,,OVC024,0.00,VWS V12.08,2013-10-25 04:27:00,
2013-10-25 00:32:00,31.9,31.9,29.85,NW,309,0.0,0.0,100,0.00,,OVC024,0.00,VWS V12.08,2013-10-25 04:32:00,
2013-10-25 00:37:00,31.9,31.9,29.85,NW,309,0.0,0.0,100,0.00,,OVC024,0.00,VWS V12.08,2013-10-25 04:37:00,
2013-10-25 00:42:00,32.1,32.1,29.85,NW,308,0.0,0.0,100,0.00,,OVC034,0.00,VWS V12.08,2013-10-25 04:42:00,
2013-10-25 00:47:00,32.1,32.1,29.85,NW,308,0.0,1.0,100,0.00,,OVC034,0.00,VWS V12.08,2013-10-25 04:47:00,
2013-10-25 00:52:00,32.1,32.1,29.85,WSW,247,1.0,2.0,100,0.00,,OVC034,0.00,VWS V12.08,2013-10-25 04:52:00,
2013-10-25 00:57:00,32.1,32.1,29.85,WSW,247,0.0,0.0,100,0.00,,OVC034,0.00,VWS V12.08,2013-10-25 04:57:00,
2013-10-25 01:02:00,32.2,32.2,29.86,WSW,247,0.0,0.0,100,0.00,,OVC034,0.00,VWS V12.08,2013-10-25 05:02:00,
2013-10-25 01:07:00,32.2,32.2,29.86,WSW,247,0.0,0.0,100,0.00,,OVC034,0.00,VWS V12.08,2013-10-25 05:07:00,
2013-10-25 01:12:00,32.4,32.4,29.86,WSW,247,0.0,0.0,100,0.00,,OVC034,0.00,VWS V12.08,2013-10-25 05:12:00,
2013-10-25 01:17:00,32.4,32.4,29.86,WSW,247,0.0,2.0,100,0.00,,OVC034,0.00,VWS V12.08,2013-10-25 05:17:00,
2013-10-25 01:22:00,32.4,32.4,29.86,WSW,247,0.0,3.0,100,0.00,,OVC034,0.00,VWS V12.08,2013-10-25 05:22:00,
2013-10-25 01:27:00,32.4,32.4,29.86,WSW,247,0.0,1.0,100,0.00,,OVC034,0.00,VWS V12.08,2013-10-25 05:27:00,
2013-10-25 01:32:00,32.4,32.4,29.87,WSW,247,0.0,0.0,100,0.00,,OVC034,0.00,VWS V12.08,2013-10-25 05:32:00,
2013-10-25 01:37:00,32.4,32.4,29.87,WSW,247,0.0,0.0,100,0.00,,OVC034,0.00,VWS V12.08,2013-10-25 05:37:00,
2013-10-25 01:42:00,32.5,32.5,29.87,WSW,247,0.0,0.0,100,0.00,,OVC029,0.00,VWS V12.08,2013-10-25 05:42:00,
2013-10-25 01:48:00,32.5,32.5,29.87,WSW,247,1.0,1.0,100,0.00,,OVC029,0.00,VWS V12.08,2013-10-25 05:48:00,
2013-10-25 01:53:00,32.7,32.7,29.87,WSW,247,0.0,0.0,100,0.00,,OVC029,0.00,VWS V12.08,2013-10-25 05:53:00,
2013-10-25 01:58:00,32.8,32.8,29.87,WSW,247,0.0,1.0,100,0.00,,OVC029,0.00,VWS V12.08,2013-10-25 05:58:00,
2013-10-25 02:03:00,33.0,33.0,29.88,WSW,247,0.0,0.0,100,0.00,,OVC029,0.00,VWS V12.08,2013-10-25 06:03:00,
2013-10-25 02:08:00,33.0,33.0,29.88,WSW,247,0.0,0.0,100,0.00,,OVC029,0.00,VWS V12.08,2013-10-25 06:08:00,
2013-10-25 02:13:00,33.1,33.1,29.88,WSW,247,0.0,0.0,100,0.00,,OVC029,0.00,VWS V12.08,2013-10-25 06:13:00,
2013-10-25 02:18:00,33.3,33.3,29.88,WSW,247,0.0,0.0,100,0.00,,OVC029,0.00,VWS V12.08,2013-10-25 06:18:00,
2013-10-25 02:23:00,33.3,33.3,29.88,WSW,247,0.0,0.0,100,0.00,,OVC029,0.00,VWS V12.08,2013-10-25 06:23:00,
2013-10-25 02:28:00,33.3,33.3,29.88,WSW,247,0.0,0.0,100,0.00,,OVC029,0.00,VWS V12.08,2013-10-25 06:28:00,
2013-10-25 02:33:00,33.4,33.4,29.88,WSW,247,0.0,0.0,100,0.00,,OVC029,0.00,VWS V12.08,2013-10-25 06:33:00,
2013-10-25 02:38:00,33.4,33.4,29.88,WSW,247,0.0,0.0,100,0.00,,OVC029,0.00,VWS V12.08,2013-10-25 06:38:00,
2013-10-25 02:43:00,33.4,33.4,29.88,WSW,247,0.0,0.0,100,0.00,,OVC024,0.00,VWS V12.08,2013-10-25 06:43:00,
2013-10-25 02:48:00,33.4,33.4,29.88,WSW,247,0.0,0.0,100,0.00,,OVC024,0.00,VWS V12.08,2013-10-25 06:48:00,
2013-10-25 02:53:00,33.5,33.5,29.88,WSW,247,0.0,0.0,100,0.00,,OVC024,0.00,VWS V12.08,2013-10-25 06:53:00,
2013-10-25 02:58:00,33.5,33.5,29.88,WSW,247,0.0,1.0,100,0.00,,OVC024,0.00,VWS V12.08,2013-10-25 06:58:00,
2013-10-25 03:03:00,33.5,33.5,29.88,WSW,247,0.0,0.0,100,0.00,,OVC024,0.00,VWS V12.08,2013-10-25 07:03:00,
2013-10-25 03:08:00,33.5,33.5,29.88,WSW,247,0.0,0.0,100,0.00,,OVC024,0.00,VWS V12.08,2013-10-25 07:08:00,
2013-10-25 03:13:00,33.5,33.5,29.88,WSW,247,0.0,0.0,100,0.00,,OVC024,0.00,VWS V12.08,2013-10-25 07:13:00,
2013-10-25 03:18:00,33.4,33.4,29.88,WSW,247,0.0,0.0,100,0.00,,OVC024,0.00,VWS V12.08,2013-10-25 07:18:00,
2013-10-25 03:23:00,33.4,33.4,29.88,WSW,246,0.0,0.0,100,0.00,,OVC024,0.00,VWS V12.08,2013-10-25 07:23:00,
2013-10-25 03:28:00,33.3,33.3,29.88,WSW,247,0.0,0.0,100,0.00,,OVC024,0.00,VWS V12.08,2013-10-25 07:28:00,
2013-10-25 03:33:00,33.1,33.1,29.89,WSW,247,0.0,0.0,100,0.00,,OVC024,0.00,VWS V12.08,2013-10-25 07:33:00,
2013-10-25 03:38:00,33.1,33.1,29.89,WSW,247,0.0,0.0,100,0.00,,OVC024,0.00,VWS V12.08,2013-10-25 07:38:00,
2013-10-25 03:43:00,33.0,33.0,29.89,WSW,247,0.0,0.0,100,0.00,,OVC025,0.00,VWS V12.08,2013-10-25 07:43:00,
2013-10-25 03:48:00,33.0,33.0,29.89,WSW,247,0.0,0.0,100,0.00,,OVC025,0.00,VWS V12.08,2013-10-25 07:48:00,
2013-10-25 03:53:00,33.0,33.0,29.89,WSW,247,0.0,0.0,100,0.00,,OVC025,0.00,VWS V12.08,2013-10-25 07:53:00,
2013-10-25 03:58:00,33.0,33.0,29.89,WSW,247,0.0,0.0,100,0.00,,OVC025,0.00,VWS V12.08,2013-10-25 07:58:00,
2013-10-25 04:03:00,32.8,32.8,29.89,WSW,247,0.0,0.0,100,0.00,,OVC025,0.00,VWS V12.08,2013-10-25 08:03:00,
2013-10-25 04:08:00,32.8,32.8,29.89,WSW,247,0.0,0.0,100,0.00,,OVC025,0.00,VWS V12.08,2013-10-25 08:08:00,
2013-10-25 04:13:00,32.8,32.8,29.89,WSW,247,0.0,0.0,100,0.00,,OVC025,0.00,VWS V12.08,2013-10-25 08:13:00,
2013-10-25 04:18:00,32.8,32.8,29.90,WSW,247,0.0,0.0,100,0.00,,OVC025,0.00,VWS V12.08,2013-10-25 08:18:00,
2013-10-25 04:23:00,33.0,33.0,29.90,WSW,247,0.0,0.0,100,0.00,,OVC025,0.00,VWS V12.08,2013-10-25 08:23:00,
2013-10-25 04:28:00,33.0,33.0,29.90,WSW,247,0.0,0.0,100,0.00,,OVC025,0.00,VWS V12.08,2013-10-25 08:28:00,
2013-10-25 04:33:00,33.0,33.0,29.90,WSW,247,0.0,0.0,100,0.00,,OVC025,0.00,VWS V12.08,2013-10-25 08:33:00,
2013-10-25 04:38:00,33.0,33.0,29.90,WSW,247,0.0,0.0,100,0.00,,OVC025,0.00,VWS V12.08,2013-10-25 08:38:00,
2013-10-25 04:43:00,33.1,33.1,29.90,WSW,247,0.0,0.0,100,0.00,,OVC030,0.00,VWS V12.08,2013-10-25 08:43:00,
2013-10-25 04:48:00,33.1,33.1,29.91,WSW,247,0.0,0.0,100,0.00,,OVC030,0.00,VWS V12.08,2013-10-25 08:48:00,
2013-10-25 04:53:00,33.3,33.3,29.91,WSW,247,0.0,0.0,100,0.00,,OVC030,0.00,VWS V12.08,2013-10-25 08:53:00,
2013-10-25 04:58:00,33.3,33.3,29.91,WSW,247,0.0,0.0,100,0.00,,OVC030,0.00,VWS V12.08,2013-10-25 08:58:00,
2013-10-25 05:03:00,33.3,33.3,29.91,WSW,247,0.0,0.0,100,0.00,,OVC030,0.00,VWS V12.08,2013-10-25 09:03:00,
2013-10-25 05:09:00,33.3,33.3,29.91,WSW,247,0.0,0.0,100,0.00,,OVC030,0.00,VWS V12.08,2013-10-25 09:09:00,
2013-10-25 05:14:00,33.3,33.3,29.91,WSW,247,0.0,0.0,100,0.00,,OVC030,0.00,VWS V12.08,2013-10-25 09:14:00,
2013-10-25 05:19:00,33.3,33.3,29.92,WSW,247,0.0,0.0,100,0.00,,OVC030,0.00,VWS V12.08,2013-10-25 09:19:00,
2013-10-25 05:24:00,33.3,33.3,29.92,WSW,247,0.0,0.0,100,0.00,,OVC030,0.00,VWS V12.08,2013-10-25 09:24:00,
2013-10-25 05:29:00,33.4,33.4,29.92,WSW,247,0.0,0.0,100,0.00,,OVC030,0.00,VWS V12.08,2013-10-25 09:29:00,
2013-10-25 05:34:00,33.4,33.4,29.92,WSW,247,0.0,0.0,100,0.00,,OVC030,0.00,VWS V12.08,2013-10-25 09:34:00,
2013-10-25 05:39:00,33.4,33.4,29.92,WSW,247,0.0,0.0,100,0.00,,OVC030,0.00,VWS V12.08,2013-10-25 09:39:00,
2013-10-25 05:44:00,33.4,33.4,29.92,WSW,247,0.0,0.0,100,0.00,,OVC034,0.00,VWS V12.08,2013-10-25 09:44:00,
2013-10-25 05:49:00,33.4,33.4,29.92,WSW,247,0.0,0.0,100,0.00,,OVC034,0.00,VWS V12.08,2013-10-25 09:49:00,
2013-10-25 05:54:00,33.4,33.4,29.92,WSW,247,0.0,0.0,100,0.00,,OVC034,0.00,VWS V12.08,2013-10-25 09:54:00,
2013-10-25 05:59:00,33.4,33.4,29.93,WSW,247,0.0,0.0,100,0.00,,OVC034,0.00,VWS V12.08,2013-10-25 09:59:00,
2013-10-25 06:04:00,33.4,33.4,29.93,WSW,247,0.0,2.0,100,0.00,,OVC034,0.00,VWS V12.08,2013-10-25 10:04:00,
2013-10-25 06:09:00,33.4,33.4,29.93,WSW,247,0.0,0.0,100,0.00,,OVC034,0.00,VWS V12.08,2013-10-25 10:09:00,
2013-10-25 06:14:00,33.4,33.4,29.93,WSW,247,0.0,0.0,100,0.00,,OVC034,0.00,VWS V12.08,2013-10-25 10:14:00,
2013-10-25 06:19:00,33.4,33.4,29.93,WSW,247,0.0,0.0,100,0.00,,OVC034,0.00,VWS V12.08,2013-10-25 10:19:00,
2013-10-25 06:24:00,33.4,33.4,29.93,WSW,247,0.0,0.0,100,0.00,,OVC034,0.00,VWS V12.08,2013-10-25 10:24:00,
2013-10-25 06:29:00,33.5,33.5,29.94,WSW,247,0.0,0.0,100,0.00,,OVC034,0.00,VWS V12.08,2013-10-25 10:29:00,
2013-10-25 06:34:00,33.5,33.5,29.94,WSW,247,0.0,0.0,100,0.00,,OVC034,0.00,VWS V12.08,2013-10-25 10:34:00,
2013-10-25 06:39:00,33.5,33.5,29.94,WSW,247,0.0,0.0,100,0.00,,OVC034,0.00,VWS V12.08,2013-10-25 10:39:00,
2013-10-25 06:44:00,33.7,33.7,29.94,WSW,247,1.0,1.0,100,0.00,,OVC030,0.00,VWS V12.08,2013-10-25 10:44:00,
2013-10-25 06:49:00,33.7,33.7,29.94,WSW,247,0.0,0.0,100,0.00,,OVC030,0.00,VWS V12.08,2013-10-25 10:49:00,
2013-10-25 06:54:00,33.7,33.7,29.94,WSW,247,0.0,0.0,100,0.00,,OVC030,0.00,VWS V12.08,2013-10-25 10:54:00,
2013-10-25 06:59:00,33.7,33.7,29.95,WSW,247,0.0,0.0,100,0.00,,OVC030,0.00,VWS V12.08,2013-10-25 10:59:00,
2013-10-25 07:04:00,33.5,33.5,29.95,WSW,247,0.0,0.0,100,0.00,,OVC030,0.00,VWS V12.08,2013-10-25 11:04:00,
2013-10-25 07:09:00,33.5,33.5,29.95,WSW,247,0.0,0.0,100,0.00,,OVC030,0.00,VWS V12.08,2013-10-25 11:09:00,
2013-10-25 07:14:00,33.5,33.5,29.95,WSW,247,0.0,0.0,100,0.00,,OVC030,0.00,VWS V12.08,2013-10-25 11:14:00,
2013-10-25 07:19:00,33.4,33.4,29.95,WSW,247,0.0,0.0,100,0.00,,OVC030,0.00,VWS V12.08,2013-10-25 11:19:00,
2013-10-25 07:24:00,33.4,33.4,29.95,WSW,247,0.0,0.0,100,0.00,,OVC030,0.00,VWS V12.08,2013-10-25 11:24:00,
2013-10-25 07:29:00,33.4,33.4,29.96,WSW,247,0.0,0.0,100,0.00,,OVC030,0.00,VWS V12.08,2013-10-25 11:29:00,
2013-10-25 07:34:00,33.4,33.4,29.96,WSW,247,0.0,0.0,100,0.00,,OVC030,0.00,VWS V12.08,2013-10-25 11:34:00,
2013-10-25 07:39:00,33.4,33.4,29.96,WSW,247,0.0,0.0,100,0.00,,OVC030,0.00,VWS V12.08,2013-10-25 11:39:00,
2013-10-25 07:44:00,33.4,33.4,29.97,WSW,247,0.0,0.0,100,0.00,,OVC035,0.00,VWS V12.08,2013-10-25 11:44:00,
2013-10-25 07:49:00,33.4,33.4,29.97,WSW,247,0.0,0.0,100,0.00,,OVC035,0.00,VWS V12.08,2013-10-25 11:49:00,
2013-10-25 07:54:00,33.5,33.5,29.97,WSW,247,0.0,0.0,100,0.00,,OVC035,0.00,VWS V12.08,2013-10-25 11:54:00,
2013-10-25 07:59:00,33.5,33.5,29.98,WSW,247,0.0,0.0,100,0.00,,OVC035,0.00,VWS V12.08,2013-10-25 11:59:00,
2013-10-25 08:04:00,33.7,33.7,29.98,WSW,247,0.0,0.0,100,0.00,,OVC035,0.00,VWS V12.08,2013-10-25 12:04:00,
2013-10-25 08:09:00,33.7,33.7,29.98,WSW,247,0.0,0.0,100,0.00,,OVC035,0.00,VWS V12.08,2013-10-25 12:09:00,
2013-10-25 08:14:00,33.8,33.8,29.98,WSW,247,0.0,0.0,100,0.00,,OVC035,0.00,VWS V12.08,2013-10-25 12:14:00,
2013-10-25 08:19:00,33.8,33.8,29.98,WSW,247,0.0,1.0,100,0.00,,OVC035,0.00,VWS V12.08,2013-10-25 12:19:00,
2013-10-25 08:24:00,34.0,34.0,29.98,WSW,247,0.0,0.0,100,0.00,,OVC035,0.00,VWS V12.08,2013-10-25 12:24:00,
2013-10-25 08:29:00,34.0,34.0,29.99,WSW,247,2.0,2.0,100,0.00,,OVC035,0.00,VWS V12.08,2013-10-25 12:29:00,
2013-10-25 08:34:00,34.0,34.0,29.99,WSW,247,0.0,0.0,100,0.00,,OVC035,0.00,VWS V12.08,2013-10-25 12:34:00,
2013-10-25 08:39:00,34.0,34.0,29.99,WSW,247,0.0,0.0,100,0.00,,OVC035,0.00,VWS V12.08,2013-10-25 12:39:00,
2013-10-25 08:45:00,34.1,34.1,30.00,WSW,247,0.0,0.0,100,0.00,,OVC035,0.00,VWS V12.08,2013-10-25 12:45:00,
2013-10-25 08:50:00,34.3,34.3,30.00,WSW,247,0.0,0.0,100,0.00,,OVC035,0.00,VWS V12.08,2013-10-25 12:50:00,
2013-10-25 08:55:00,34.4,34.4,30.00,SW,224,2.0,5.0,100,0.00,,OVC035,0.00,VWS V12.08,2013-10-25 12:55:00,
2013-10-25 09:00:00,34.4,34.4,30.00,SW,227,2.0,3.0,100,0.00,,OVC035,0.00,VWS V12.08,2013-10-25 13:00:00,
2013-10-25 09:05:00,34.4,34.4,30.00,SW,230,1.0,3.0,100,0.00,,OVC060,0.00,VWS V12.08,2013-10-25 13:05:00,
2013-10-25 09:10:00,34.4,34.4,30.00,WSW,241,2.0,6.0,100,0.00,,OVC060,0.00,VWS V12.08,2013-10-25 13:10:00,
2013-10-25 09:15:00,34.3,34.3,30.01,WSW,257,0.0,5.0,100,0.00,,OVC060,0.00,VWS V12.08,2013-10-25 13:15:00,
2013-10-25 09:20:00,34.1,34.1,30.01,WSW,254,1.0,1.0,100,0.00,,OVC060,0.00,VWS V12.08,2013-10-25 13:20:00,
2013-10-25 09:25:00,33.7,33.7,30.01,SW,229,1.0,3.0,100,0.00,,OVC060,0.00,VWS V12.08,2013-10-25 13:25:00,
2013-10-25 09:30:00,33.3,33.3,30.01,SW,229,0.0,2.0,100,0.00,,OVC060,0.00,VWS V12.08,2013-10-25 13:30:00,
2013-10-25 09:35:00,32.8,32.8,30.01,SW,220,3.0,3.0,100,0.00,,OVC060,0.00,VWS V12.08,2013-10-25 13:35:00,
2013-10-25 09:40:00,32.5,32.5,30.01,WSW,246,2.0,4.0,100,0.00,,OVC060,0.00,VWS V12.08,2013-10-25 13:40:00,
2013-10-25 09:45:00,32.4,32.4,30.02,SSW,208,1.0,4.0,100,0.00,,OVC060,0.00,VWS V12.08,2013-10-25 13:45:00,
2013-10-25 09:50:00,32.4,32.4,30.02,SSW,195,0.0,0.0,100,0.00,,OVC060,0.00,VWS V12.08,2013-10-25 13:50:00,
2013-10-25 09:55:00,32.7,32.7,30.02,SSW,195,1.0,1.0,100,0.00,,OVC060,0.00,VWS V12.08,2013-10-25 13:55:00,
2013-10-25 10:00:00,33.0,33.0,30.01,SSW,209,2.0,3.0,100,0.00,,OVC060,0.00,VWS V12.08,2013-10-25 14:00:00,
2013-10-25 10:05:00,33.3,33.3,30.01,SW,229,3.0,3.0,100,0.00,,OVC060,0.00,VWS V12.08,2013-10-25 14:05:00,
2013-10-25 10:10:00,33.3,33.3,30.01,SW,220,6.0,7.0,100,0.00,,OVC060,0.00,VWS V12.08,2013-10-25 14:10:00,
2013-10-25 10:15:00,33.4,33.4,30.02,WSW,244,5.0,6.0,100,0.00,,OVC060,0.00,VWS V12.08,2013-10-25 14:15:00,
2013-10-25 10:20:00,33.5,33.5,30.02,SSW,195,3.0,3.0,100,0.00,,OVC060,0.00,VWS V12.08,2013-10-25 14:20:00,
2013-10-25 10:25:00,33.8,33.8,30.02,SW,220,6.0,6.0,100,0.00,,OVC060,0.00,VWS V12.08,2013-10-25 14:25:00,
2013-10-25 10:30:00,34.3,34.3,30.02,SW,224,0.0,0.0,100,0.00,,OVC060,0.00,VWS V12.08,2013-10-25 14:30:00,
2013-10-25 10:35:00,34.8,34.8,30.02,SW,227,0.0,2.0,100,0.00,,OVC060,0.00,VWS V12.08,2013-10-25 14:35:00,
2013-10-25 10:40:00,35.3,35.3,30.02,SW,220,1.0,2.0,100,0.00,,OVC060,0.00,VWS V12.08,2013-10-25 14:40:00,
2013-10-25 10:45:00,35.7,35.7,30.01,SW,222,2.0,3.0,100,0.00,,OVC060,0.00,VWS V12.08,2013-10-25 14:45:00,
2013-10-25 10:50:00,35.8,35.5,30.01,SSW,202,3.0,5.0,99,0.00,,OVC060,0.00,VWS V12.08,2013-10-25 14:50:00,
2013-10-25 10:55:00,36.0,35.2,30.01,SW,230,0.0,1.0,97,0.00,,OVC060,0.00,VWS V12.08,2013-10-25 14:55:00,
2013-10-25 11:00:00,36.1,35.1,30.02,WSW,239,0.0,0.0,96,0.00,,OVC060,0.00,VWS V12.08,2013-10-25 15:00:00,
2013-10-25 11:05:00,36.3,34.7,30.02,WSW,239,0.0,0.0,94,0.00,,OVC060,0.00,VWS V12.08,2013-10-25 15:05:00,
2013-10-25 11:10:00,36.3,34.2,30.02,SW,232,0.0,0.0,92,0.00,,OVC060,0.00,VWS V12.08,2013-10-25 15:10:00,
2013-10-25 11:15:00,36.1,32.9,30.02,SW,232,2.0,2.0,88,0.00,,OVC060,0.00,VWS V12.08,2013-10-25 15:15:00,
2013-10-25 11:20:00,36.3,32.5,30.02,SW,229,2.0,2.0,86,0.00,,OVC060,0.00,VWS V12.08,2013-10-25 15:20:00,
2013-10-25 11:25:00,36.4,32.6,30.02,SW,229,0.0,0.0,86,0.00,,OVC060,0.00,VWS V12.08,2013-10-25 15:25:00,
2013-10-25 11:30:00,36.6,31.6,30.02,SE,131,0.0,0.0,82,0.00,,OVC060,0.00,VWS V12.08,2013-10-25 15:30:00,
2013-10-25 11:35:00,36.7,31.1,30.02,North,354,1.0,3.0,80,0.00,,OVC060,0.00,VWS V12.08,2013-10-25 15:35:00,
2013-10-25 11:40:00,36.8,30.6,30.02,SSW,199,0.0,0.0,78,0.00,,FEW060,0.00,VWS V12.08,2013-10-25 15:40:00,
2013-10-25 11:46:00,37.0,30.8,30.02,SSW,199,0.0,0.0,78,0.00,,FEW060,0.00,VWS V12.08,2013-10-25 15:46:00,
2013-10-25 11:51:00,37.1,30.6,30.02,ENE,64,2.0,3.0,77,0.00,,FEW060,0.00,VWS V12.08,2013-10-25 15:51:00,
2013-10-25 11:56:00,37.3,30.4,30.02,ENE,62,0.0,1.0,76,0.00,,FEW060,0.00,VWS V12.08,2013-10-25 15:56:00,
2013-10-25 12:01:00,37.6,30.7,30.03,NNW,346,1.0,2.0,76,0.00,,FEW060,0.00,VWS V12.08,2013-10-25 16:01:00,
2013-10-25 12:06:00,37.6,30.4,30.03,North,353,2.0,2.0,75,0.00,,FEW060,0.00,VWS V12.08,2013-10-25 16:06:00,
2013-10-25 12:11:00,37.6,29.7,30.03,East,100,0.0,2.0,73,0.00,,FEW060,0.00,VWS V12.08,2013-10-25 16:11:00,
2013-10-25 12:16:00,37.7,29.5,30.02,WNW,291,1.0,3.0,72,0.00,,FEW060,0.00,VWS V12.08,2013-10-25 16:16:00,
2013-10-25 12:21:00,37.7,29.2,30.02,WNW,291,0.0,0.0,71,0.00,,FEW060,0.00,VWS V12.08,2013-10-25 16:21:00,
2013-10-25 12:26:00,38.0,29.1,30.02,ENE,66,0.0,0.0,70,0.00,,FEW060,0.00,VWS V12.08,2013-10-25 16:26:00,
2013-10-25 12:31:00,38.1,28.8,30.02,WSW,257,2.0,2.0,69,0.00,,FEW060,0.00,VWS V12.08,2013-10-25 16:31:00,
2013-10-25 12:36:00,38.3,29.0,30.02,SSW,213,1.0,3.0,69,0.00,,FEW060,0.00,VWS V12.08,2013-10-25 16:36:00,
2013-10-25 12:41:00,38.6,29.3,30.02,NNE,32,1.0,3.0,69,0.00,,BKN050,0.00,VWS V12.08,2013-10-25 16:41:00,
2013-10-25 12:46:00,38.7,28.7,30.02,WNW,296,1.0,3.0,67,0.00,,BKN050,0.00,VWS V12.08,2013-10-25 16:46:00,
2013-10-25 12:51:00,38.6,28.2,30.02,East,86,1.0,3.0,66,0.00,,BKN050,0.00,VWS V12.08,2013-10-25 16:51:00,
2013-10-25 12:56:00,38.4,28.0,30.02,NW,311,4.0,7.0,66,0.00,,BKN050,0.00,VWS V12.08,2013-10-25 16:56:00,
2013-10-25 13:01:00,38.4,27.7,30.02,North,0,2.0,2.0,65,0.00,,BKN050,0.00,VWS V12.08,2013-10-25 17:01:00,
2013-10-25 13:06:00,38.4,27.3,30.02,South,184,1.0,3.0,64,0.00,,BKN050,0.00,VWS V12.08,2013-10-25 17:06:00,
2013-10-25 13:11:00,38.6,27.5,30.02,SW,234,2.0,6.0,64,0.00,,BKN050,0.00,VWS V12.08,2013-10-25 17:11:00,
2013-10-25 13:16:00,38.8,28.4,30.02,SW,236,1.0,2.0,66,0.00,,BKN050,0.00,VWS V12.08,2013-10-25 17:16:00,
2013-10-25 13:21:00,38.6,27.1,30.02,NNW,330,6.0,7.0,63,0.00,,BKN050,0.00,VWS V12.08,2013-10-25 17:21:00,
2013-10-25 13:26:00,38.3,27.6,30.02,WSW,248,2.0,2.0,65,0.00,,BKN050,0.00,VWS V12.08,2013-10-25 17:26:00,
2013-10-25 13:31:00,38.1,27.4,30.03,NNE,30,0.0,2.0,65,0.00,,BKN050,0.00,VWS V12.08,2013-10-25 17:31:00,
2013-10-25 13:36:00,38.1,27.8,30.03,WNW,296,2.0,5.0,66,0.00,,BKN050,0.00,VWS V12.08,2013-10-25 17:36:00,
2013-10-25 13:41:00,38.0,26.5,30.03,NNE,18,1.0,3.0,63,0.00,,OVC046,0.00,VWS V12.08,2013-10-25 17:41:00,
2013-10-25 13:46:00,38.0,26.9,30.03,NNE,25,1.0,2.0,64,0.00,,OVC046,0.00,VWS V12.08,2013-10-25 17:46:00,
2013-10-25 13:51:00,38.0,26.9,30.03,ESE,104,3.0,3.0,64,0.00,,OVC046,0.00,VWS V12.08,2013-10-25 17:51:00,
2013-10-25 13:56:00,38.0,27.3,30.03,SSW,192,0.0,3.0,65,0.00,,OVC046,0.00,VWS V12.08,2013-10-25 17:56:00,
2013-10-25 14:01:00,38.1,26.6,30.03,NW,318,6.0,6.0,63,0.00,,OVC046,0.00,VWS V12.08,2013-10-25 18:01:00,
2013-10-25 14:06:00,38.1,26.6,30.03,WSW,237,2.0,2.0,63,0.00,,OVC046,0.00,VWS V12.08,2013-10-25 18:06:00,
2013-10-25 14:11:00,38.0,26.5,30.03,SSW,200,2.0,3.0,63,0.00,,OVC046,0.00,VWS V12.08,2013-10-25 18:11:00,
2013-10-25 14:16:00,38.0,26.5,30.03,SSW,203,0.0,0.0,63,0.00,,OVC046,0.00,VWS V12.08,2013-10-25 18:16:00,
2013-10-25 14:21:00,37.8,26.7,30.03,South,171,0.0,2.0,64,0.00,,OVC046,0.00,VWS V12.08,2013-10-25 18:21:00,
2013-10-25 14:26:00,38.0,26.9,30.03,South,171,0.0,2.0,64,0.00,,OVC046,0.00,VWS V12.08,2013-10-25 18:26:00,
2013-10-25 14:31:00,38.0,26.5,30.03,SSW,203,2.0,2.0,63,0.00,,OVC046,0.00,VWS V12.08,2013-10-25 18:31:00,
2013-10-25 14:36:00,37.8,26.0,30.03,NW,313,2.0,3.0,62,0.00,,OVC046,0.00,VWS V12.08,2013-10-25 18:36:00,
2013-10-25 14:41:00,37.7,26.3,30.03,West,272,0.0,2.0,63,0.00,,OVC044,0.00,VWS V12.08,2013-10-25 18:41:00,
2013-10-25 14:46:00,37.7,25.9,30.03,WNW,301,1.0,2.0,62,0.00,,OVC044,0.00,VWS V12.08,2013-10-25 18:46:00,
2013-10-25 14:51:00,37.6,26.2,30.03,South,178,3.0,4.0,63,0.00,,OVC044,0.00,VWS V12.08,2013-10-25 18:51:00,
2013-10-25 14:56:00,37.6,25.0,30.03,NE,34,5.0,6.0,60,0.00,,OVC044,0.00,VWS V12.08,2013-10-25 18:56:00,
2013-10-25 15:01:00,37.8,25.6,30.04,South,174,2.0,2.0,61,0.00,,OVC044,0.00,VWS V12.08,2013-10-25 19:01:00,
2013-10-25 15:06:00,38.3,26.0,30.04,SW,217,1.0,5.0,61,0.00,,OVC044,0.00,VWS V12.08,2013-10-25 19:06:00,
2013-10-25 15:11:00,38.8,25.7,30.04,WNW,296,3.0,6.0,59,0.00,,OVC044,0.00,VWS V12.08,2013-10-25 19:11:00,
2013-10-25 15:16:00,39.7,26.1,30.03,NW,326,1.0,5.0,58,0.00,,OVC044,0.00,VWS V12.08,2013-10-25 19:16:00,
2013-10-25 15:21:00,40.3,26.3,30.03,WNW,301,3.0,3.0,57,0.00,,OVC044,0.00,VWS V12.08,2013-10-25 19:21:00,
2013-10-25 15:26:00,40.3,26.3,30.03,SSE,165,2.0,6.0,57,0.00,,OVC044,0.00,VWS V12.08,2013-10-25 19:26:00,
2013-10-25 15:31:00,40.4,26.0,30.03,WNW,292,4.0,5.0,56,0.00,,OVC044,0.00,VWS V12.08,2013-10-25 19:31:00,
2013-10-25 15:36:00,40.3,25.0,30.03,South,185,2.0,4.0,54,0.00,,OVC044,0.00,VWS V12.08,2013-10-25 19:36:00,
2013-10-25 15:41:00,39.8,25.0,30.03,SW,234,7.0,7.0,55,0.00,,OVC042,0.00,VWS V12.08,2013-10-25 19:41:00,
2013-10-25 15:46:00,39.3,24.5,30.04,NNW,336,1.0,3.0,55,0.00,,OVC042,0.00,VWS V12.08,2013-10-25 19:46:00,
2013-10-25 15:51:00,39.1,24.7,30.04,West,275,2.0,3.0,56,0.00,,OVC042,0.00,VWS V12.08,2013-10-25 19:51:00,
2013-10-25 15:56:00,39.1,24.7,30.04,NE,41,0.0,6.0,56,0.00,,OVC042,0.00,VWS V12.08,2013-10-25 19:56:00,
2013-10-25 16:01:00,39.0,25.1,30.04,WSW,244,3.0,3.0,57,0.00,,OVC042,0.00,VWS V12.08,2013-10-25 20:01:00,
2013-10-25 16:06:00,38.7,24.8,30.04,NW,309,0.0,3.0,57,0.00,,OVC042,0.00,VWS V12.08,2013-10-25 20:06:00,
2013-10-25 16:11:00,38.6,24.7,30.04,NW,315,2.0,2.0,57,0.00,,OVC042,0.00,VWS V12.08,2013-10-25 20:11:00,
2013-10-25 16:16:00,38.6,24.7,30.04,West,277,1.0,2.0,57,0.00,,OVC042,0.00,VWS V12.08,2013-10-25 20:16:00,
2013-10-25 16:21:00,38.3,24.8,30.04,West,280,0.0,2.0,58,0.00,,OVC042,0.00,VWS V12.08,2013-10-25 20:21:00,
2013-10-25 16:26:00,38.1,25.1,30.04,West,280,0.0,2.0,59,0.00,,OVC042,0.00,VWS V12.08,2013-10-25 20:26:00,
2013-10-25 16:31:00,37.8,24.8,30.04,West,280,0.0,0.0,59,0.00,,OVC042,0.00,VWS V12.08,2013-10-25 20:31:00,
2013-10-25 16:36:00,37.7,24.7,30.04,West,280,0.0,0.0,59,0.00,,OVC042,0.00,VWS V12.08,2013-10-25 20:36:00,
2013-10-25 16:42:00,37.4,25.2,30.04,West,280,1.0,1.0,61,0.00,,OVC042,0.00,VWS V12.08,2013-10-25 20:42:00,
2013-10-25 16:47:00,37.4,25.2,30.04,West,280,0.0,0.0,61,0.00,,OVC042,0.00,VWS V12.08,2013-10-25 20:47:00,
2013-10-25 16:52:00,37.3,25.5,30.04,West,280,0.0,0.0,62,0.00,,OVC042,0.00,VWS V12.08,2013-10-25 20:52:00,
2013-10-25 16:57:00,37.1,26.1,30.04,West,280,0.0,0.0,64,0.00,,OVC042,0.00,VWS V12.08,2013-10-25 20:57:00,
2013-10-25 17:02:00,37.1,27.5,30.04,West,280,0.0,0.0,68,0.00,,OVC042,0.00,VWS V12.08,2013-10-25 21:02:00,
2013-10-25 17:07:00,37.0,27.8,30.04,West,280,0.0,0.0,69,0.00,,OVC042,0.00,VWS V12.08,2013-10-25 21:07:00,
2013-10-25 17:12:00,37.0,27.8,30.04,West,280,0.0,0.0,69,0.00,,OVC042,0.00,VWS V12.08,2013-10-25 21:12:00,
2013-10-25 17:17:00,36.8,28.3,30.04,West,280,0.0,0.0,71,0.00,,OVC042,0.00,VWS V12.08,2013-10-25 21:17:00,
2013-10-25 17:22:00,36.7,28.2,30.04,West,280,0.0,0.0,71,0.00,,OVC042,0.00,VWS V12.08,2013-10-25 21:22:00,
2013-10-25 17:27:00,36.7,28.5,30.04,West,280,0.0,0.0,72,0.00,,OVC042,0.00,VWS V12.08,2013-10-25 21:27:00,
2013-10-25 17:32:00,36.6,28.4,30.05,West,280,0.0,0.0,72,0.00,,OVC042,0.00,VWS V12.08,2013-10-25 21:32:00,
2013-10-25 17:37:00,36.4,28.6,30.05,West,280,0.0,0.0,73,0.00,,OVC042,0.00,VWS V12.08,2013-10-25 21:37:00,
2013-10-25 17:42:00,36.4,28.9,30.05,West,280,0.0,0.0,74,0.00,,OVC040,0.00,VWS V12.08,2013-10-25 21:42:00,
2013-10-25 17:47:00,36.3,28.8,30.05,West,280,0.0,0.0,74,0.00,,OVC040,0.00,VWS V12.08,2013-10-25 21:47:00,
2013-10-25 17:52:00,36.1,28.6,30.05,West,280,0.0,0.0,74,0.00,,OVC040,0.00,VWS V12.08,2013-10-25 21:52:00,
2013-10-25 17:57:00,36.0,28.9,30.05,West,280,0.0,0.0,75,0.00,,OVC040,0.00,VWS V12.08,2013-10-25 21:57:00,
2013-10-25 18:02:00,36.0,28.9,30.06,West,280,0.0,0.0,75,0.00,,OVC040,0.00,VWS V12.08,2013-10-25 22:02:00,
2013-10-25 18:07:00,35.8,28.7,30.06,West,280,0.0,0.0,75,0.00,,OVC040,0.00,VWS V12.08,2013-10-25 22:07:00,
2013-10-25 18:12:00,35.7,28.9,30.06,West,280,0.0,0.0,76,0.00,,OVC040,0.00,VWS V12.08,2013-10-25 22:12:00,
2013-10-25 18:17:00,35.7,28.9,30.06,West,280,0.0,0.0,76,0.00,,OVC040,0.00,VWS V12.08,2013-10-25 22:17:00,
2013-10-25 18:22:00,35.5,29.0,30.06,West,280,0.0,0.0,77,0.00,,OVC040,0.00,VWS V12.08,2013-10-25 22:22:00,
2013-10-25 18:27:00,35.5,29.0,30.06,West,280,0.0,0.0,77,0.00,,OVC040,0.00,VWS V12.08,2013-10-25 22:27:00,
2013-10-25 18:32:00,35.5,29.0,30.07,West,280,2.0,2.0,77,0.00,,OVC040,0.00,VWS V12.08,2013-10-25 22:32:00,
2013-10-25 18:37:00,35.5,29.3,30.07,West,280,0.0,0.0,78,0.00,,OVC040,0.00,VWS V12.08,2013-10-25 22:37:00,
2013-10-25 18:42:00,35.5,28.7,30.07,West,280,0.0,0.0,76,0.00,,OVC044,0.00,VWS V12.08,2013-10-25 22:42:00,
2013-10-25 18:47:00,35.7,29.5,30.07,West,280,0.0,0.0,78,0.00,,OVC044,0.00,VWS V12.08,2013-10-25 22:47:00,
2013-10-25 18:52:00,35.7,29.5,30.07,West,280,0.0,0.0,78,0.00,,OVC044,0.00,VWS V12.08,2013-10-25 22:52:00,
2013-10-25 18:57:00,35.5,29.3,30.07,West,280,0.0,0.0,78,0.00,,OVC044,0.00,VWS V12.08,2013-10-25 22:57:00,
2013-10-25 19:02:00,35.5,29.3,30.07,West,280,0.0,0.0,78,0.00,,OVC044,0.00,VWS V12.08,2013-10-25 23:02:00,
2013-10-25 19:07:00,35.5,29.3,30.07,West,280,0.0,0.0,78,0.00,,OVC044,0.00,VWS V12.08,2013-10-25 23:07:00,
2013-10-25 19:12:00,35.5,29.0,30.07,West,280,0.0,0.0,77,0.00,,OVC044,0.00,VWS V12.08,2013-10-25 23:12:00,
2013-10-25 19:17:00,35.5,29.3,30.07,West,280,0.0,0.0,78,0.00,,OVC044,0.00,VWS V12.08,2013-10-25 23:17:00,
2013-10-25 19:22:00,35.5,29.6,30.07,West,280,0.0,0.0,79,0.00,,OVC044,0.00,VWS V12.08,2013-10-25 23:22:00,
2013-10-25 19:27:00,35.5,29.6,30.07,West,280,0.0,0.0,79,0.00,,OVC044,0.00,VWS V12.08,2013-10-25 23:27:00,
2013-10-25 19:32:00,35.4,29.5,30.08,West,280,0.0,0.0,79,0.00,,OVC044,0.00,VWS V12.08,2013-10-25 23:32:00,
2013-10-25 19:37:00,35.4,29.5,30.08,West,280,0.0,0.0,79,0.00,,OVC044,0.00,VWS V12.08,2013-10-25 23:37:00,
2013-10-25 19:42:00,35.4,29.5,30.08,West,280,0.0,0.0,79,0.00,,OVC044,0.00,VWS V12.08,2013-10-25 23:42:00,
2013-10-25 19:47:00,35.4,29.5,30.08,West,280,0.0,0.0,79,0.00,,OVC044,0.00,VWS V12.08,2013-10-25 23:47:00,
2013-10-25 19:50:00,35.4,29.9,30.08,West,280,0.0,0.0,80,0.00,,OVC044,0.00,VWS V12.08,2013-10-25 23:50:00,
2013-10-25 19:52:00,35.4,29.9,30.08,West,280,0.0,0.0,80,0.00,,OVC044,0.00,VWS V12.08,2013-10-25 23:52:00,
2013-10-25 19:57:00,35.3,29.8,30.08,West,280,0.0,0.0,80,0.00,,OVC044,0.00,VWS V12.08,2013-10-25 23:57:00,
2013-10-25 20:00:00,35.3,29.8,30.08,West,280,0.0,0.0,80,0.00,,OVC044,0.00,VWS V12.08,2013-10-26 00:00:00,
2013-10-25 20:02:00,35.3,29.5,30.08,West,280,0.0,0.0,79,0.00,,OVC044,0.00,VWS V12.08,2013-10-26 00:02:00,
2013-10-25 20:07:00,35.1,29.3,30.08,West,280,0.0,0.0,79,0.00,,OVC044,0.00,VWS V12.08,2013-10-26 00:07:00,
2013-10-25 20:10:00,35.1,29.2,30.08,West,280,0.0,0.0,79,0.00,,OVC044,0.00,VWS V12.08,2013-10-26 00:10:00,
2013-10-25 20:12:00,35.1,29.3,30.08,West,280,0.0,0.0,79,0.00,,OVC044,0.00,VWS V12.08,2013-10-26 00:12:00,
2013-10-25 20:17:00,35.0,29.2,30.07,West,280,0.0,0.0,79,0.00,,OVC044,0.00,VWS V12.08,2013-10-26 00:17:00,
2013-10-25 20:20:00,35.0,29.5,30.07,West,280,0.0,0.0,80,0.00,,OVC044,0.00,VWS V12.08,2013-10-26 00:20:00,
2013-10-25 20:22:00,35.0,29.5,30.07,West,280,0.0,0.0,80,0.00,,OVC044,0.00,VWS V12.08,2013-10-26 00:22:00,
2013-10-25 20:27:00,34.8,29.3,30.07,West,280,0.0,0.0,80,0.00,,OVC044,0.00,VWS V12.08,2013-10-26 00:27:00,
2013-10-25 20:30:00,34.8,29.3,30.07,West,280,0.0,0.0,80,0.00,,OVC044,0.00,VWS V12.08,2013-10-26 00:30:00,
2013-10-25 20:32:00,34.8,29.6,30.07,West,280,0.0,0.0,81,0.00,,OVC044,0.00,VWS V12.08,2013-10-26 00:32:00,
2013-10-25 20:37:00,34.7,29.8,30.07,West,280,0.0,0.0,82,0.00,,OVC044,0.00,VWS V12.08,2013-10-26 00:37:00,
2013-10-25 20:40:00,34.7,30.1,30.07,West,280,0.0,0.0,83,0.00,,OVC044,0.00,VWS V12.08,2013-10-26 00:40:00,
2013-10-25 20:42:00,34.7,30.1,30.07,West,280,0.0,0.0,83,0.00,,OVC044,0.00,VWS V12.08,2013-10-26 00:42:00,
2013-10-25 20:47:00,34.5,30.2,30.07,West,280,0.0,0.0,84,0.00,,OVC044,0.00,VWS V12.08,2013-10-26 00:47:00,
2013-10-25 20:50:00,34.4,30.1,30.07,West,280,0.0,0.0,84,0.00,,OVC044,0.00,VWS V12.08,2013-10-26 00:50:00,
2013-10-25 20:52:00,34.4,30.1,30.07,West,280,0.0,0.0,84,0.00,,OVC044,0.00,VWS V12.08,2013-10-26 00:52:00,
2013-10-25 20:57:00,34.4,30.1,30.07,West,280,0.0,0.0,84,0.00,,OVC044,0.00,VWS V12.08,2013-10-26 00:57:00,
2013-10-25 21:00:00,34.4,30.1,30.08,West,280,0.0,0.0,84,0.00,,OVC044,0.00,VWS V12.08,2013-10-26 01:00:00,
2013-10-25 21:02:00,34.3,30.0,30.08,West,280,0.0,0.0,84,0.00,,OVC044,0.00,VWS V12.08,2013-10-26 01:02:00,
2013-10-25 21:07:00,34.3,30.0,30.08,West,280,0.0,0.0,84,0.00,,OVC044,0.00,VWS V12.08,2013-10-26 01:07:00,
2013-10-25 21:10:00,34.3,30.0,30.08,West,280,0.0,0.0,84,0.00,,OVC044,0.00,VWS V12.08,2013-10-26 01:10:00,
2013-10-25 21:12:00,34.3,30.3,30.08,West,280,0.0,0.0,85,0.00,,OVC044,0.00,VWS V12.08,2013-10-26 01:12:00,
2013-10-25 21:17:00,34.3,30.3,30.08,West,280,0.0,0.0,85,0.00,,OVC044,0.00,VWS V12.08,2013-10-26 01:17:00,
2013-10-25 21:20:00,34.3,30.3,30.08,West,280,0.0,0.0,85,0.00,,OVC044,0.00,VWS V12.08,2013-10-26 01:20:00,
2013-10-25 21:22:00,34.3,30.6,30.08,West,280,0.0,0.0,86,0.00,,OVC044,0.00,VWS V12.08,2013-10-26 01:22:00,
2013-10-25 21:27:00,34.3,30.6,30.08,West,280,0.0,0.0,86,0.00,,OVC044,0.00,VWS V12.08,2013-10-26 01:27:00,
2013-10-25 21:30:00,34.1,30.4,30.08,West,280,0.0,0.0,86,0.00,,OVC044,0.00,VWS V12.08,2013-10-26 01:30:00,
2013-10-25 21:32:00,34.1,30.4,30.08,West,280,0.0,0.0,86,0.00,,OVC044,0.00,VWS V12.08,2013-10-26 01:32:00,
2013-10-25 21:37:00,34.1,30.4,30.08,West,280,0.0,0.0,86,0.00,,OVC044,0.00,VWS V12.08,2013-10-26 01:37:00,
2013-10-25 21:40:00,34.1,30.4,30.08,West,280,0.0,0.0,86,0.00,,OVC044,0.00,VWS V12.08,2013-10-26 01:40:00,
2013-10-25 21:42:00,34.0,30.3,30.08,West,280,0.0,0.0,86,0.00,,OVC044,0.00,VWS V12.08,2013-10-26 01:42:00,
2013-10-25 21:47:00,34.0,30.3,30.09,West,280,0.0,0.0,86,0.00,,OVC044,0.00,VWS V12.08,2013-10-26 01:47:00,
2013-10-25 21:50:00,34.0,30.3,30.09,West,280,0.0,0.0,86,0.00,,OVC044,0.00,VWS V12.08,2013-10-26 01:50:00,
2013-10-25 21:52:00,34.0,30.5,30.09,West,280,0.0,0.0,87,0.00,,OVC044,0.00,VWS V12.08,2013-10-26 01:52:00,
2013-10-25 21:57:00,34.0,30.5,30.09,West,280,0.0,0.0,87,0.00,,OVC044,0.00,VWS V12.08,2013-10-26 01:57:00,
2013-10-25 22:00:00,34.0,30.5,30.09,West,280,0.0,0.0,87,0.00,,OVC044,0.00,VWS V12.08,2013-10-26 02:00:00,
2013-10-25 22:02:00,34.0,30.5,30.09,West,280,0.0,0.0,87,0.00,,OVC044,0.00,VWS V12.08,2013-10-26 02:02:00,
2013-10-25 22:08:00,34.0,30.5,30.09,West,280,0.0,0.0,87,0.00,,OVC044,0.00,VWS V12.08,2013-10-26 02:08:00,
2013-10-25 22:10:00,34.0,30.5,30.09,West,280,0.0,0.0,87,0.00,,OVC044,0.00,VWS V12.08,2013-10-26 02:10:00,
2013-10-25 22:13:00,34.0,30.8,30.09,West,280,0.0,0.0,88,0.00,,OVC044,0.00,VWS V12.08,2013-10-26 02:13:00,
2013-10-25 22:18:00,34.0,30.8,30.10,West,280,0.0,0.0,88,0.00,,OVC044,0.00,VWS V12.08,2013-10-26 02:18:00,
2013-10-25 22:20:00,34.0,30.8,30.10,West,280,0.0,0.0,88,0.00,,OVC044,0.00,VWS V12.08,2013-10-26 02:20:00,
2013-10-25 22:23:00,34.0,30.8,30.10,West,280,0.0,0.0,88,0.00,,OVC044,0.00,VWS V12.08,2013-10-26 02:23:00,
2013-10-25 22:28:00,34.0,31.1,30.10,West,280,0.0,0.0,89,0.00,,OVC044,0.00,VWS V12.08,2013-10-26 02:28:00,
2013-10-25 22:30:00,34.0,31.1,30.10,West,280,0.0,0.0,89,0.00,,OVC044,0.00,VWS V12.08,2013-10-26 02:30:00,
2013-10-25 22:33:00,34.0,30.5,30.10,West,280,0.0,0.0,87,0.00,,OVC044,0.00,VWS V12.08,2013-10-26 02:33:00,
2013-10-25 22:38:00,34.1,30.4,30.10,West,280,0.0,0.0,86,0.00,,OVC044,0.00,VWS V12.08,2013-10-26 02:38:00,
2013-10-25 22:40:00,34.3,30.3,30.10,West,280,0.0,0.0,85,0.00,,OVC044,0.00,VWS V12.08,2013-10-26 02:40:00,
2013-10-25 22:43:00,34.4,30.6,30.10,West,280,0.0,0.0,86,0.00,,OVC044,0.00,VWS V12.08,2013-10-26 02:43:00,
2013-10-25 22:48:00,34.4,30.1,30.10,West,280,0.0,0.0,84,0.00,,OVC044,0.00,VWS V12.08,2013-10-26 02:48:00,
2013-10-25 22:50:00,34.5,29.6,30.10,West,280,2.0,3.0,82,0.00,,OVC044,0.00,VWS V12.08,2013-10-26 02:50:00,
2013-10-25 22:53:00,34.7,29.5,30.10,North,0,0.0,0.0,81,0.00,,OVC044,0.00,VWS V12.08,2013-10-26 02:53:00,
2013-10-25 22:58:00,34.8,29.9,30.10,North,0,0.0,0.0,82,0.00,,OVC044,0.00,VWS V12.08,2013-10-26 02:58:00,
2013-10-25 23:00:00,34.7,30.1,30.10,North,0,0.0,0.0,83,0.00,,OVC044,0.00,VWS V12.08,2013-10-26 03:00:00,
2013-10-25 23:03:00,34.7,30.1,30.10,North,0,0.0,0.0,83,0.00,,OVC044,0.00,VWS V12.08,2013-10-26 03:03:00,
2013-10-25 23:08:00,34.7,30.1,30.10,North,0,0.0,0.0,83,0.00,,OVC044,0.00,VWS V12.08,2013-10-26 03:08:00,
2013-10-25 23:10:00,34.7,30.1,30.10,North,0,0.0,0.0,83,0.00,,OVC044,0.00,VWS V12.08,2013-10-26 03:10:00,
2013-10-25 23:13:00,34.7,30.4,30.10,North,0,0.0,0.0,84,0.00,,OVC044,0.00,VWS V12.08,2013-10-26 03:13:00,
2013-10-25 23:18:00,34.5,30.5,30.09,North,0,0.0,0.0,85,0.00,,OVC044,0.00,VWS V12.08,2013-10-26 03:18:00,
2013-10-25 23:20:00,34.5,30.5,30.09,North,0,0.0,0.0,85,0.00,,OVC044,0.00,VWS V12.08,2013-10-26 03:20:00,
2013-10-25 23:23:00,34.5,30.8,30.09,North,0,0.0,0.0,86,0.00,,OVC044,0.00,VWS V12.08,2013-10-26 03:23:00,
2013-10-25 23:28:00,34.5,30.8,30.09,North,0,0.0,0.0,86,0.00,,OVC044,0.00,VWS V12.08,2013-10-26 03:28:00,
2013-10-25 23:30:00,34.4,30.6,30.10,North,0,0.0,0.0,86,0.00,,OVC044,0.00,VWS V12.08,2013-10-26 03:30:00,
2013-10-25 23:33:00,34.4,30.6,30.10,North,0,0.0,0.0,86,0.00,,OVC044,0.00,VWS V12.08,2013-10-26 03:33:00,
2013-10-25 23:38:00,34.3,30.0,30.10,North,0,0.0,0.0,84,0.00,,OVC044,0.00,VWS V12.08,2013-10-26 03:38:00,
2013-10-25 23:40:00,34.3,30.0,30.10,North,0,0.0,0.0,84,0.00,,OVC044,0.00,VWS V12.08,2013-10-26 03:40:00,
2013-10-25 23:43:00,34.3,30.0,30.10,North,0,0.0,0.0,84,0.00,,OVC044,0.00,VWS V12.08,2013-10-26 03:43:00,
2013-10-25 23:48:00,34.4,30.4,30.10,North,0,0.0,0.0,85,0.00,,OVC044,0.00,VWS V12.08,2013-10-26 03:48:00,
2013-10-25 23:50:00,34.4,30.4,30.10,North,0,0.0,0.0,85,0.00,,OVC044,0.00,VWS V12.08,2013-10-26 03:50:00,
2013-10-25 23:53:00,34.4,30.4,30.10,North,0,0.0,0.0,85,0.00,,OVC044,0.00,VWS V12.08,2013-10-26 03:53:00,
2013-10-25 23:58:00,34.4,30.4,30.10,North,0,0.0,0.0,85,0.00,,OVC044,0.00,VWS V12.08,2013-10-26 03:58:00,